Regional Weather Roundup
Issued by NWS

Home | Current Version | Previous Version | Graphics & Text | Print | Product List | Glossary On
Versions: 1 2 3 4 5 6 7 8 9 10 11 12 13 14 15 16 17 18 19 20 21 22 23 24 25 26 27 28 29 30 31 32 33 34 35 36 37 38 39 40 41 42 43 44 45 46 47 48 49 50
000
ASUS43 KBIS 231710
RWRND

NORTH DAKOTA REGIONAL WEATHER ROUNDUP
NATIONAL WEATHER SERVICE BISMARCK ND
1200 PM CDT TUE MAY 23 2017

NOTE: "FAIR" INDICATES FEW OR NO CLOUDS BELOW 12,000 FEET WITH NO
SIGNIFICANT WEATHER AND/OR OBSTRUCTIONS TO VISIBILITY.


NDZ001>003-009>011-017-231800-
NORTHWEST NORTH DAKOTA

CITY           SKY/WX    TMP DP  RH WIND       PRES   REMARKS
WILLISTON      FAIR      65  35  33 VRB3      30.15F
MINOT          FAIR      63  37  38 N13G18    30.12F
MINOT AFB      SUNNY     62  36  38 N10       30.11F
$$

NDZ018>021-031>035-040>046-231800-
SOUTHWEST NORTH DAKOTA

CITY           SKY/WX    TMP DP  RH WIND       PRES   REMARKS
BISMARCK       FAIR      61  36  39 N24G33    30.09S
DICKINSON      FAIR      59  35  40 N14G22    30.12F
GARRISON         N/A     59  35  40 N12G25    30.11F
HETTINGER ARPT MOSUNNY   61  35  37 N16G24    30.13F
$$

NDZ004>008-012>016-024-026-027-054-231800-
NORTHEAST NORTH DAKOTA

CITY           SKY/WX    TMP DP  RH WIND       PRES   REMARKS
GRAND FORKS    CLOUDY    56  44  64 NE20      30.01F
GRND FRKS AFB  CLOUDY    55  42  62 NE18      30.02S
DEVILS LAKE    FAIR      59  40  49 NE23G29   30.07F
$$

NDZ022-023-025-028>030-036>039-047>053-231800-
SOUTHEAST NORTH DAKOTA

CITY           SKY/WX    TMP DP  RH WIND       PRES   REMARKS
FARGO          CLOUDY    54  48  80 N17G25    29.96S
JAMESTOWN      CLOUDY    52  43  71 NE20G30   30.02S
$$





USA.gov is the U.S. government's official web portal to all federal, state and local government web resources and services.